Probability
0 0 0 0 0 0 0 3 3 6 10 10 13 13 10 6 10 10 13 16 19 13 13 13 10 10 6 6 6 10 13 16 6 6 10 3 3 6 10 0 3 10 10
3 0 0 0 0 3 3 3 6 3 3 10 10 3 10 10 10 13 16 16 13 13 16 10 10 6 6 3 3 6 6 6 10 6 6 3 3 6 6 6 10 6 3
6 3 3 6 3 3 3 6 6 3 3 6 13 13 10 10 16 16 19 13 13 10 13 13 6 3 3 3 3 3 6 6 6 6 6 6 6 6 6 10 10 6 6
10 6 3 6 6 3 0 6 6 6 6 6 19 23 19 13 10 10 13 10 10 10 3 3 3 0 0 0 0 0 6 6 3 6 6 6 6 6 6 6 6 3 6
10 6 10 6 6 3 3 3 3 3 3 10 13 19 16 13 6 6 13 6 6 10 10 6 3 0 0 0 0 0 6 3 3 6 6 6 6 6 6 6 6 6 6
10 10 10 10 3 3 3 3 3 6 6 10 10 6 6 10 13 13 13 10 10 10 10 10 3 0 0 0 0 3 3 3 6 6 6 6 10 6 6 6 6 6 6
16 13 10 10 3 10 6 3 3 3 6 6 6 6 10 10 13 13 13 10 6 10 10 13 10 3 3 6 3 6 3 3 6 6 6 6 6 6 6 6 6 6 3
6 6 6 13 6 10 6 6 3 3 3 3 6 13 13 16 13 13 13 13 10 6 3 13 19 13 10 10 10 6 3 3 6 6 10 13 10 10 10 10 10 6 3
6 6 6 6 10 6 3 3 0 0 3 6 6 13 10 13 13 13 13 13 6 10 10 10 19 19 16 13 13 10 6 6 10 3 3 3 6 6 6 6 10 6 3
6 6 6 6 6 6 6 3 0 3 6 10 13 13 13 13 13 13 13 13 13 19 16 19 19 6 10 10 10 6 6 3 6 6 3 6 6 6 6 6 6 3 6
13 10 13 10 6 6 6 3 3 6 6 6 10 13 13 16 16 16 13 10 13 16 16 16 19 13 16 16 13 10 16 10 10 6 3 3 3 3 3 3 3 3 3
16 19 13 10 6 6 6 3 3 13 16 10 10 16 19 19 19 13 13 13 10 6 10 10 16 19 19 19 13 16 19 16 13 10 6 10 10 6 6 6 6 6 3
16 13 16 10 10 10 6 6 3 10 16 19 23 16 19 19 13 10 10 13 10 10 10 13 19 19 19 23 23 16 16 16 16 13 10 10 10 6 6 6 6 6 3
13 13 10 6 10 13 13 13 6 3 10 23 23 23 23 19 16 16 19 16 10 10 16 19 23 26 26 26 23 19 19 19 19 13 13 10 10 6 10 6 6 6 3
10 13 10 10 10 13 16 19 16 6 13 23 23 26 23 19 19 19 19 19 13 23 16 19 19 23 23 26 26 19 16 16 16 10 10 10 10 10 10 6 6 3 3
10 10 10 10 10 6 13 13 16 16 16 16 19 16 19 16 19 23 19 19 19 23 23 19 19 19 19 16 13 16 19 19 19 10 10 10 6 6 6 6 3 0 3
13 6 6 6 6 6 10 10 19 16 16 19 23 23 16 16 19 23 23 23 19 23 23 23 19 16 16 10 10 3 16 19 16 6 6 6 6 6 6 3 0 0 0
10 6 6 6 6 6 6 6 13 13 16 19 23 23 23 19 16 16 23 23 23 26 19 19 19 19 16 10 6 3 6 10 13 6 6 6 3 3 3 3 3 0 0
3 3 3 6 3 6 6 6 13 19 19 23 23 23 23 23 16 19 23 19 23 23 23 23 23 19 19 6 6 0 6 6 6 3 3 3 3 3 0 3 0 0 0
6 6 10 6 10 10 6 6 10 16 16 16 23 23 23 19 19 16 19 19 19 19 19 23 23 23 19 10 6 3 6 6 3 0 0 0 3 3 0 0 3 0 0
10 6 10 13 10 10 6 6 13 13 13 13 16 23 23 19 19 16 16 16 16 19 23 19 16 16 16 13 3 0 6 3 3 3 3 3 0 0 0 0 0 0 0
3 6 6 10 10 6 6 10 10 13 16 16 16 16 26 23 23 23 23 19 16 19 19 19 19 16 13 10 6 0 3 3 3 6 3 3 0 0 0 0 0 0 0
3 3 6 6 6 10 10 13 10 10 13 13 13 16 16 19 23 23 26 26 19 16 23 19 19 16 13 13 3 0 0 0 3 6 3 0 0 0 0 0 0 0 0
6 6 6 6 6 10 10 13 13 10 10 10 10 10 6 13 19 19 26 26 26 19 16 19 19 16 13 13 10 3 0 0 0 0 0 0 0 0 0 0 0 0 0
6 6 6 6 10 10 10 10 10 10 6 6 3 3 3 3 6 3 3 16 16 10 13 16 13 16 13 13 10 6 6 0 0 0 0 0 0 0 0 0 0 0 0
6 6 10 10 10 10 10 10 10 6 6 3 3 3 3 6 6 3 6 3 0 0 0 0 3 10 6 3 3 0 0 0 0 0 0 0 0 0 0 0 0 0 0
Height
5901 5900 5898 5897 5896 5896 5895 5894 5894 5893 5893 5893 5893 5893 5893 5892 5892 5891 5891 5890 5890 5889 5889 5888 5888 5887 5887 5886 5886 5885 5884 5884 5883 5883 5883 5883 5882 5882 5881 5881 5881 5881 5881
5901 5900 5899 5898 5897 5896 5895 5894 5894 5893 5893 5893 5893 5892 5892 5892 5891 5891 5890 5889 5889 5888 5888 5887 5886 5886 5885 5885 5884 5883 5883 5882 5881 5881 5880 5881 5881 5880 5879 5879 5879 5879 5879
5901 5899 5899 5898 5897 5896 5895 5894 5893 5892 5892 5892 5892 5892 5891 5891 5890 5890 5889 5888 5888 5887 5886 5885 5885 5884 5883 5882 5882 5881 5881 5880 5879 5878 5878 5878 5878 5877 5877 5877 5876 5876 5876
5900 5899 5898 5897 5896 5895 5894 5893 5893 5892 5891 5891 5890 5890 5890 5890 5889 5888 5887 5886 5886 5885 5884 5883 5883 5882 5881 5880 5880 5879 5878 5878 5877 5876 5876 5875 5875 5874 5874 5874 5874 5873 5873
5899 5898 5897 5896 5895 5894 5893 5892 5892 5891 5890 5889 5889 5888 5888 5888 5887 5886 5885 5884 5884 5883 5882 5881 5880 5879 5879 5878 5877 5877 5876 5875 5874 5874 5873 5873 5872 5871 5871 5871 5870 5870 5869
5897 5896 5895 5894 5894 5893 5892 5890 5890 5889 5888 5888 5887 5887 5886 5885 5885 5884 5883 5882 5881 5880 5879 5879 5878 5877 5876 5875 5874 5874 5873 5872 5871 5871 5870 5869 5869 5868 5868 5867 5867 5866 5866
5896 5894 5893 5892 5892 5891 5890 5889 5887 5887 5886 5886 5885 5885 5884 5883 5882 5881 5880 5879 5878 5877 5877 5876 5875 5874 5873 5872 5871 5870 5869 5869 5868 5867 5866 5866 5865 5865 5864 5864 5863 5862 5862
5893 5892 5891 5890 5889 5888 5887 5886 5885 5884 5883 5883 5882 5882 5881 5880 5879 5879 5878 5877 5875 5874 5873 5873 5872 5870 5870 5869 5868 5867 5866 5865 5864 5863 5863 5862 5861 5861 5860 5860 5859 5859 5858
5891 5890 5889 5887 5887 5886 5885 5884 5883 5882 5881 5880 5879 5879 5878 5877 5876 5875 5874 5873 5872 5870 5870 5869 5868 5867 5866 5865 5864 5863 5862 5861 5860 5859 5858 5858 5857 5856 5856 5855 5855 5855 5854
5888 5887 5886 5885 5884 5883 5881 5880 5879 5879 5878 5877 5876 5875 5875 5874 5873 5872 5871 5869 5868 5867 5866 5865 5864 5863 5862 5861 5860 5859 5858 5857 5856 5855 5854 5853 5852 5851 5851 5850 5849 5849 5849
5884 5884 5883 5882 5880 5880 5878 5877 5876 5875 5874 5873 5872 5871 5871 5870 5868 5868 5867 5865 5864 5863 5862 5861 5860 5859 5858 5857 5856 5855 5854 5853 5852 5851 5849 5849 5848 5847 5846 5845 5844 5843 5843
5880 5880 5879 5878 5877 5876 5875 5873 5872 5871 5870 5869 5868 5867 5866 5865 5864 5863 5862 5861 5859 5858 5857 5857 5855 5854 5853 5852 5851 5850 5849 5848 5847 5845 5844 5843 5842 5841 5841 5839 5838 5837 5836
5875 5875 5874 5874 5872 5871 5870 5869 5868 5867 5866 5865 5863 5862 5860 5859 5858 5857 5856 5855 5854 5853 5852 5851 5850 5849 5848 5847 5846 5845 5844 5842 5841 5840 5839 5837 5836 5835 5834 5833 5832 5831 5829
5870 5869 5869 5868 5867 5866 5865 5864 5863 5862 5860 5859 5858 5856 5855 5854 5852 5851 5850 5849 5848 5847 5847 5846 5845 5844 5843 5842 5840 5839 5838 5837 5835 5834 5833 5831 5830 5829 5827 5826 5825 5823 5822
5864 5863 5863 5862 5862 5861 5860 5858 5857 5856 5855 5853 5851 5850 5849 5848 5846 5846 5845 5844 5843 5842 5841 5840 5839 5838 5837 5835 5834 5833 5832 5830 5829 5827 5826 5825 5823 5822 5820 5819 5817 5816 5815
5857 5857 5856 5856 5855 5854 5853 5852 5851 5849 5848 5846 5845 5844 5842 5841 5840 5839 5838 5837 5837 5836 5834 5833 5832 5831 5830 5828 5827 5826 5825 5823 5822 5820 5819 5817 5816 5814 5813 5811 5810 5809 5807
5850 5850 5849 5848 5848 5847 5846 5844 5844 5842 5840 5839 5838 5836 5835 5834 5833 5832 5831 5830 5830 5829 5828 5826 5825 5824 5822 5821 5820 5819 5817 5816 5814 5812 5811 5809 5808 5806 5805 5803 5802 5800 5799
5843 5842 5842 5841 5840 5839 5838 5837 5836 5834 5832 5831 5830 5828 5828 5827 5826 5825 5824 5822 5822 5821 5820 5818 5817 5816 5815 5814 5812 5811 5809 5808 5806 5805 5803 5801 5800 5798 5796 5795 5793 5792 5791
5835 5835 5834 5834 5833 5832 5830 5829 5828 5826 5824 5823 5822 5820 5819 5819 5818 5817 5816 5815 5814 5813 5812 5810 5809 5808 5807 5806 5804 5803 5801 5800 5798 5797 5795 5793 5792 5790 5788 5787 5785 5783 5782
5828 5827 5827 5825 5824 5823 5823 5822 5820 5819 5817 5816 5814 5813 5812 5811 5810 5809 5808 5807 5806 5805 5803 5802 5801 5800 5799 5797 5796 5794 5793 5791 5790 5788 5787 5785 5783 5781 5779 5778 5776 5775 5773
5820 5819 5819 5818 5817 5816 5815 5814 5812 5811 5810 5808 5807 5805 5804 5803 5802 5801 5800 5799 5798 5796 5795 5793 5792 5791 5790 5789 5787 5786 5784 5783 5781 5780 5778 5776 5774 5772 5771 5769 5767 5766 5764
5813 5812 5811 5810 5809 5807 5807 5806 5805 5803 5801 5800 5798 5797 5795 5794 5793 5792 5791 5790 5788 5787 5785 5784 5783 5782 5781 5779 5778 5777 5775 5774 5772 5771 5769 5767 5765 5764 5762 5760 5759 5757 5755
5805 5804 5803 5802 5801 5800 5799 5798 5797 5795 5794 5792 5790 5788 5787 5785 5784 5783 5782 5781 5779 5778 5776 5775 5773 5772 5771 5770 5768 5767 5766 5764 5763 5762 5760 5758 5756 5755 5753 5751 5750 5748 5746
5797 5797 5796 5794 5793 5792 5791 5790 5789 5787 5785 5784 5782 5780 5778 5777 5776 5774 5773 5771 5770 5768 5766 5764 5763 5761 5760 5759 5758 5757 5756 5755 5754 5752 5751 5749 5747 5746 5744 5743 5741 5739 5737
5790 5788 5787 5786 5785 5784 5782 5781 5780 5779 5777 5775 5773 5772 5770 5768 5767 5765 5763 5762 5760 5758 5756 5754 5753 5752 5751 5750 5748 5747 5746 5745 5744 5743 5742 5740 5739 5737 5735 5733 5732 5730 5729
5781 5780 5779 5778 5777 5776 5774 5773 5771 5770 5768 5766 5764 5763 5761 5759 5757 5755 5754 5752 5751 5749 5747 5745 5744 5743 5742 5740 5739 5738 5737 5735 5734 5734 5733 5731 5730 5728 5726 5725 5723 5721 5720
Wind_Speed
8 7 7 6 4 4 5 4 4 3 2 2 2 2 2 2 2 2 3 3 3 4 4 4 5 5 6 6 7 7 7 7 7 7 7 7 7 7 7 7 7 8 8
6 6 7 7 6 5 5 5 4 2 2 1 2 2 2 3 3 3 4 4 5 5 5 6 6 6 7 7 7 7 8 8 8 8 8 8 8 8 8 9 9 8 8
5 6 6 6 5 5 5 5 5 3 1 1 2 3 3 4 4 5 5 5 6 6 6 7 7 7 7 7 8 8 8 8 9 9 9 9 10 10 10 10 10 10 10
6 6 6 6 5 5 5 5 5 4 3 3 3 4 5 5 6 7 7 7 7 7 8 8 8 8 8 8 9 9 9 10 9 9 10 10 11 11 11 12 12 13 13
7 6 6 7 6 6 5 5 5 5 6 6 5 6 7 7 8 8 8 8 8 8 9 9 9 9 9 9 9 10 10 10 10 10 10 11 11 11 12 12 13 13 14
7 7 7 7 7 7 6 6 6 6 7 7 8 8 8 9 9 10 9 9 9 9 9 9 10 10 10 10 10 10 10 11 11 10 11 11 12 13 13 13 14 14 15
9 9 8 8 7 7 8 7 7 7 7 8 9 9 10 10 10 10 10 10 10 10 10 10 11 11 12 12 11 12 12 12 12 12 13 13 13 14 14 14 14 15 15
11 11 10 10 8 8 8 8 8 8 8 9 10 10 11 12 12 11 11 11 12 11 10 11 12 12 12 13 13 12 13 13 13 14 14 15 15 15 15 15 15 15 16
13 13 12 11 10 9 8 9 9 9 9 10 10 12 12 13 13 13 13 13 14 14 13 13 13 13 14 14 14 13 13 14 15 16 16 16 16 17 17 17 17 17 17
14 14 14 11 11 12 12 12 11 11 11 12 13 13 13 14 15 14 15 15 15 15 15 15 14 14 14 14 14 15 15 16 16 17 18 18 18 19 19 19 19 19 19
14 15 14 14 14 15 15 15 14 13 14 14 15 16 16 16 16 16 17 17 17 16 16 16 16 16 16 16 17 17 17 17 18 19 19 20 20 20 20 21 21 21 21
15 15 15 16 16 17 17 17 16 15 16 16 17 17 18 18 17 17 17 17 18 18 18 17 17 17 17 17 18 18 18 18 19 19 20 21 21 21 22 22 23 23 24
17 17 17 18 18 19 18 17 17 17 17 18 19 19 19 19 19 19 19 19 20 19 19 18 18 19 19 19 19 20 20 21 21 21 22 22 23 23 24 25 25 26 25
20 19 19 19 20 20 19 19 19 20 20 20 21 21 20 20 21 21 21 20 20 19 19 19 20 20 20 21 21 22 23 23 23 23 23 24 24 24 25 26 26 27 27
22 22 22 21 21 21 21 21 21 22 22 22 22 22 23 22 22 22 22 22 21 21 21 21 22 22 22 23 23 24 24 24 25 25 25 25 25 26 27 27 27 28 28
24 24 24 24 24 24 24 23 23 24 24 24 24 24 24 24 23 22 23 23 23 23 23 23 24 24 24 25 25 26 26 26 27 27 26 26 26 27 28 29 30 30 29
25 25 25 26 26 26 26 25 25 25 25 25 24 24 24 24 24 24 25 25 24 24 25 25 26 26 26 26 26 27 27 27 28 28 28 28 28 29 29 30 30 29 28
26 26 26 26 27 27 27 27 27 27 26 26 25 25 26 26 26 26 26 26 27 27 27 27 27 27 28 28 28 29 29 29 28 28 29 29 30 30 30 30 29 29 29
26 26 26 27 28 28 28 27 27 28 27 26 27 26 27 27 28 28 28 28 29 29 28 28 28 29 29 29 30 30 30 30 30 29 29 30 30 30 30 30 30 30 30
26 26 26 27 27 26 26 27 27 27 27 27 28 28 28 28 29 29 29 29 29 30 30 30 30 30 30 30 30 30 31 31 31 31 30 30 31 30 30 30 30 31 31
27 27 27 27 26 26 27 27 27 27 27 27 28 29 29 29 30 30 30 30 30 31 32 32 32 31 30 30 30 31 31 31 32 32 31 31 31 30 29 29 29 30 31
26 27 27 27 27 26 26 27 27 28 28 28 29 30 30 31 31 31 30 30 31 32 32 32 33 32 31 31 31 32 32 32 32 32 32 31 31 30 29 29 29 30 30
27 27 27 27 27 27 27 28 27 28 29 29 29 29 30 30 31 31 31 31 31 32 32 32 32 32 32 31 32 32 32 32 32 31 30 31 31 30 29 29 29 29 29
26 26 26 25 25 26 27 28 27 28 29 29 30 30 31 31 31 31 32 32 32 32 32 32 32 31 31 31 31 32 32 31 30 30 30 30 30 30 29 29 28 28 28
25 25 26 26 26 26 26 27 28 28 28 29 30 31 31 32 32 32 32 32 32 32 32 32 31 31 31 31 32 32 31 30 29 29 30 30 30 30 29 29 29 29 30
26 26 27 27 26 27 27 27 28 29 29 29 30 30 32 32 33 33 33 32 31 31 32 31 31 31 31 31 31 31 29 29 29 29 30 30 29 29 29 29 29 29 29
Wind_Direction
25 27 29 33 44 37 34 36 39 51 54 53 51 42 28 20 12 359 342 332 326 315 312 309 309 307 304 301 296 294 292 292 293 292 291 287 283 283 281 278 278 282 281
16 15 23 27 32 26 24 25 18 15 32 18 16 17 5 360 353 341 332 329 324 314 310 309 304 302 304 297 293 294 292 291 292 291 290 286 281 281 280 275 274 278 281
358 2 4 2 9 12 7 6 6 355 339 332 323 324 328 326 325 314 313 313 315 311 306 304 303 301 301 297 293 294 293 292 292 291 288 284 283 282 282 278 275 277 278
332 338 340 343 345 353 346 348 357 350 336 315 304 299 303 301 305 303 301 302 304 304 301 299 297 299 298 295 293 292 292 292 292 292 289 284 284 283 282 281 276 276 276
315 317 323 324 321 325 326 330 335 327 326 324 307 311 303 299 298 300 300 300 300 299 297 295 294 297 296 296 295 293 293 291 289 287 286 283 285 285 283 281 281 281 279
311 310 308 308 310 314 312 304 313 309 307 309 305 304 303 295 295 295 295 295 296 296 294 293 293 294 293 294 293 291 293 291 286 284 283 281 284 286 283 281 283 283 281
300 300 304 305 303 306 305 302 307 299 294 295 295 300 298 294 291 295 293 294 292 292 293 290 291 290 291 292 292 289 287 289 289 287 284 281 281 284 284 282 283 284 282
294 294 293 293 293 298 304 305 302 297 292 294 294 298 298 293 290 289 290 291 288 289 294 293 291 289 290 288 288 290 287 287 286 287 285 283 280 281 283 282 283 283 284
288 289 287 291 294 296 301 303 303 300 293 294 295 296 297 296 295 292 288 288 287 286 292 295 295 289 288 291 289 291 288 287 287 285 285 285 282 282 283 280 281 282 283
284 288 287 291 297 296 295 293 300 303 298 292 293 295 293 295 294 292 291 288 289 289 291 291 296 294 289 290 290 291 289 287 286 285 284 283 282 285 285 282 280 281 282
279 282 283 286 292 295 295 298 298 298 299 296 291 293 293 291 289 288 287 288 289 288 288 290 290 291 289 287 289 289 289 289 287 286 287 285 282 284 285 284 283 283 283
279 280 281 283 287 290 293 294 293 293 295 296 293 291 290 289 285 282 282 284 283 286 286 287 289 289 289 289 288 288 289 290 289 288 289 287 284 284 285 286 285 285 286
280 282 286 288 287 289 289 289 290 291 290 290 290 289 288 285 281 278 278 280 282 285 286 286 287 287 289 289 288 288 288 289 289 288 289 288 287 284 286 286 287 288 288
278 280 283 285 286 288 289 287 286 287 287 287 287 286 285 284 281 281 282 280 281 281 282 283 285 286 287 287 286 286 287 287 287 287 287 288 289 288 286 286 286 288 287
278 280 280 281 282 282 282 284 286 285 285 286 285 284 283 281 278 278 280 283 285 280 280 281 283 284 286 287 287 286 286 286 287 287 286 287 288 289 287 287 287 287 286
279 280 280 279 279 280 280 280 285 285 284 284 284 283 284 282 279 278 279 281 283 284 283 282 282 283 284 285 285 284 284 286 287 286 286 287 288 288 288 288 288 287 286
278 279 280 279 279 281 282 280 280 284 286 285 283 281 282 282 280 280 280 280 282 283 286 285 283 282 283 283 283 284 284 285 286 287 287 286 286 287 288 289 289 289 286
277 277 278 280 281 281 282 280 282 284 285 283 280 279 280 280 280 281 281 280 280 282 285 284 282 281 281 282 283 283 283 284 286 287 288 288 287 288 288 289 288 289 288
276 275 275 278 280 280 282 284 286 286 285 281 280 280 280 280 280 280 281 280 283 283 285 283 282 282 282 282 283 283 283 284 285 287 289 289 290 289 289 288 288 289 289
275 276 278 281 282 283 284 285 288 289 289 287 285 283 283 281 280 282 284 283 282 283 283 283 282 281 281 282 283 284 283 283 285 288 289 290 290 290 289 289 289 289 289
276 277 279 282 282 283 284 285 287 287 288 288 288 286 286 285 283 283 283 283 281 281 282 282 280 280 281 282 283 284 285 285 285 287 288 289 290 290 290 290 290 290 289
276 278 280 280 281 283 285 286 287 287 288 288 287 287 286 285 285 282 282 282 282 281 281 282 281 280 281 282 282 282 283 284 286 286 287 288 289 289 289 289 289 289 289
277 278 279 280 282 283 285 287 287 287 288 289 289 287 286 287 286 284 284 284 283 284 284 285 284 281 280 281 281 281 282 283 284 285 286 287 288 288 288 288 289 288 288
279 280 279 280 283 284 285 286 286 286 288 289 289 289 288 289 288 287 287 287 286 285 286 286 285 283 281 280 281 281 280 280 281 283 285 286 287 286 286 286 287 288 288
279 279 279 280 284 286 287 286 287 289 290 290 290 289 289 289 289 289 289 288 288 287 287 286 286 285 283 281 282 281 278 277 279 282 283 285 285 286 286 285 286 286 287
279 279 279 280 282 285 286 287 289 289 289 290 289 288 288 290 290 290 289 288 288 287 285 283 283 283 286 284 281 280 279 279 280 282 284 285 287 287 287 286 285 286 286